PulseSat

PulseSat

COSMOS 2477 (745)

Last updated on March 20, 2019, 3:12 a.m. UTC

1 37868U 11064B   19078.54310617  .00000015  00000-0  00000+0 0  9991
2 37868  64.5058 162.6286 0016456 241.5943  88.7443  2.13101737 57363
UTC
Height (km)
Latitude
Longitude
Inclination
Orbital Period

Next 30 passes for location: Hong Kong

Rise time Rise Azimuth (degrees) Set time Set Azimuth (degrees) Duration Max altitude (degrees)

No matching passes for this satellites

PulseSat

PulseSat is the new satellites software and hardware trackering solution by Pulsely.
Satellite Two Line Element Set source: US Air Force Space Command

Download PulseSat for iOS
© 2017 Pulsely Limited